Nome, AK

1:18 AM AKDT on March 30, 2017 (GMT -0800)
Nome

Weather History for PAOM - July, 2013

Change the Weather History Date:

Saturday, July 20, 2013

  Actual Average Record
Temperature  
Mean Temperature 48 °F 52 °F  
Max Temperature 50 °F 58 °F 82 °F (1993)
Min Temperature 45 °F 47 °F 34 °F (1922)
Degree Days  
Heating Degree Days 17 13  
Month to date heating degree days 280 257  
Since 1 June heating degree days 756 773  
Since 1 July heating degree days 280 257  
Cooling Degree Days 0    
Month to date cooling degree days 0  
Year to date cooling degree days 7  
Since 1 June cooling degree days 7  
Moisture  
Dew Point 46 °F    
Average Humidity 0    
Maximum Humidity 0    
Minimum Humidity 0    
Precipitation  
Precipitation 0.00 in 0.08 in 1.06 in (1910)
Month to date precipitation 2.06 1.17  
Year to date precipitation 8.84 6.29  
Snow  
Snow 0.00 in 0.00 in 0.00 in (2016)
Month to date snowfall 0.0 0.0  
Since 1 June snowfall 0.1 0.3  
Since 1 July snowfall 0.0 0.0  
Snow Depth 0.00 in    
Sea Level Pressure  
Sea Level Pressure 30.20 in    
Wind  
Wind Speed 9 mph (SW)    
Max Wind Speed 15 mph    
Max Gust Speed 18 mph    
Visibility 7 miles    
Events Rain    
T = Trace of Precipitation, MM = Missing Value Source: NWS Daily Summary

Daily Weather History Graph

Daily Weather History Graph

Search for Another Location

Airport or City:

Trip Planner

Search our weather history database for the weather conditions in past years. The results will help you decide how hot, cold, wet, or windy it might be!

Date:

Astronomy

Jul. 20, 2013 Rise Set
Actual Time 5:26 AM AKDT 12:47 AM AKDT
Civil Twilight 3:40 AM AKDT 2:35 AM AKDT
Nautical Twilight Sun does not rise Sun does not rise
Astronomical Twilight Sun does not rise Sun does not rise
Moon 10:46 PM AKDT (7/20) 3:28 AM AKDT (7/20)
Length of Visible Light 22h 55m
Length of Day
19h 20m
Waxing Gibbous, 94% of the Moon is Illuminated
Jul 20
Waxing Gibbous
Jul 22
Full
Jul 29
Last Quarter
Aug 6
New
Aug 14
First Quarter

Hourly Weather History & Observations

Time (AKDT) Temp. Windchill Dew Point Humidity Pressure Visibility Wind Dir Wind Speed Gust Speed Precip Events Conditions
12:53 AM 48.0 °F - 46.9 °F 96% 30.21 in 10.0 mi WNW 6.9 mph - N/A   Overcast
1:14 AM 48.2 °F - 46.4 °F 93% 30.21 in 10.0 mi West 3.5 mph - N/A   Overcast
1:53 AM 48.0 °F - 46.9 °F 96% 30.20 in 10.0 mi WNW 3.5 mph - N/A   Overcast
2:11 AM 48.2 °F - 46.4 °F 93% 30.20 in 9.0 mi Calm Calm - N/A   Overcast
2:48 AM 48.2 °F - 46.4 °F 93% 30.21 in 10.0 mi WSW 5.8 mph - N/A   Overcast
2:53 AM 48.9 °F - 46.9 °F 93% 30.21 in 9.0 mi WSW 4.6 mph - N/A   Overcast
3:53 AM 48.9 °F - 46.9 °F 93% 30.21 in 10.0 mi SW 6.9 mph - N/A   Overcast
4:53 AM 48.9 °F - 46.9 °F 93% 30.21 in 10.0 mi WSW 5.8 mph - N/A   Overcast
5:53 AM 48.9 °F - 48.0 °F 97% 30.21 in 3.0 mi SW 8.1 mph - N/A   Overcast
6:09 AM 48.2 °F - 48.2 °F 100% 30.21 in 3.0 mi SW 9.2 mph - N/A   Overcast
6:53 AM 48.9 °F - 48.0 °F 97% 30.21 in 5.0 mi WSW 9.2 mph - N/A   Overcast
7:18 AM 48.2 °F - 48.2 °F 100% 30.21 in 10.0 mi WSW 8.1 mph - N/A   Overcast
7:53 AM 50.0 °F - 48.0 °F 93% 30.20 in 10.0 mi WSW 8.1 mph - N/A   Overcast
8:02 AM 50.0 °F - 48.2 °F 94% 30.20 in 10.0 mi WSW 8.1 mph - N/A   Overcast
8:53 AM 48.0 °F - 46.9 °F 96% 30.20 in 8.0 mi SW 11.5 mph - N/A   Overcast
9:00 AM 48.2 °F - 46.4 °F 93% 30.20 in 1.5 mi SSW 12.7 mph - N/A   Overcast
9:04 AM 48.2 °F - 46.4 °F 93% 30.20 in 2.0 mi SSW 10.4 mph - N/A   Overcast
9:53 AM 46.0 °F 39.9 °F 46.0 °F 100% 30.20 in 2.0 mi SSW 13.8 mph - N/A   Overcast
9:55 AM 46.4 °F 40.1 °F 46.4 °F 100% 30.20 in 1.5 mi SSW 15.0 mph - N/A   Overcast
10:03 AM 44.6 °F 38.1 °F 44.6 °F 100% 30.20 in 0.8 mi SSW 13.8 mph - N/A   Overcast
10:15 AM 44.6 °F 38.1 °F 44.6 °F 100% 30.20 in 1.0 mi SSW 13.8 mph - N/A   Overcast
10:53 AM 45.0 °F 38.5 °F 44.1 °F 97% 30.21 in 2.0 mi SW 13.8 mph - N/A   Overcast
10:58 AM 46.4 °F 40.4 °F 44.6 °F 93% 30.21 in 3.0 mi SSW 13.8 mph - N/A   Overcast
11:53 AM 46.0 °F 41.0 °F 45.0 °F 96% 30.21 in 3.0 mi SW 10.4 mph - N/A   Overcast
12:27 PM 46.4 °F 41.1 °F 44.6 °F 93% 30.21 in 2.0 mi SW 11.5 mph - N/A   Overcast
12:53 PM 46.0 °F 40.2 °F 45.0 °F 96% 30.21 in 2.0 mi SSW 12.7 mph - N/A   Overcast
1:24 PM 46.4 °F 41.5 °F 44.6 °F 93% 30.21 in 4.0 mi SW 10.4 mph - N/A   Overcast
1:53 PM 45.0 °F 40.6 °F 44.1 °F 97% 30.21 in 4.0 mi SW 8.1 mph - N/A   Overcast
2:53 PM 46.0 °F 42.5 °F 45.0 °F 96% 30.20 in 5.0 mi SSW 6.9 mph - N/A   Overcast
3:53 PM 46.0 °F 41.9 °F 45.0 °F 96% 30.20 in 6.0 mi SW 8.1 mph - N/A   Overcast
4:53 PM 46.9 °F - 45.0 °F 93% 30.20 in 10.0 mi SSW 6.9 mph - N/A   Overcast
5:53 PM 46.9 °F - 45.0 °F 93% 30.19 in 10.0 mi SSW 8.1 mph - N/A   Overcast
6:53 PM 48.0 °F - 46.0 °F 93% 30.20 in 10.0 mi SW 8.1 mph - N/A   Overcast
7:48 PM 48.2 °F - 46.4 °F 93% 30.20 in 10.0 mi SW 8.1 mph - N/A   Overcast
7:53 PM 48.0 °F - 46.0 °F 93% 30.20 in 10.0 mi WSW 8.1 mph - 0.00 in Rain Light Rain
8:53 PM 48.0 °F - 46.0 °F 93% 30.18 in 10.0 mi SW 6.9 mph - 0.00 in   Overcast
9:53 PM 48.0 °F - 46.0 °F 93% 30.19 in 10.0 mi SW 10.4 mph - N/A   Overcast
10:53 PM 46.9 °F - 46.0 °F 97% 30.17 in 10.0 mi SW 12.7 mph - N/A   Overcast
11:53 PM 46.9 °F - 45.0 °F 93% 30.18 in 10.0 mi SW 11.5 mph - N/A   Overcast